DLH8ER EDDF-LDRI

Flight info

Callsign DLH8ER
Flight time 1h 12m
Altitude 33000
Route CINDY8S/18 CINDY Z74 LAMPU DCT NOMBO Y161 MAH DCT VAVOR DCT RADIZ DCT VEKEN DCT GIRDA
Aircraft A320/M-SDE2E3FGIJ1LORWXYZ/HB1

Departure

Time 2026-05-04 09:54
Airport Frankfurt Main Airport (EDDF)

Arrival

Time 2026-05-04 11:06
Airport Rijeka Airport (LDRI)
Time Latitude Longitude Altitude Speed Heading
2026-05-04 09:14 50.04453 8.56431 363 ft 0 kts 154°
2026-05-04 09:44 50.04463 8.56424 359 ft 4 kts 154°
2026-05-04 09:46 50.04514 8.56374 358 ft 0 kts 250°
2026-05-04 09:49 50.04306 8.56074 360 ft 13 kts 171°
2026-05-04 09:49 50.04248 8.55976 361 ft 15 kts 250°
2026-05-04 09:49 50.04210 8.55815 356 ft 17 kts 249°
2026-05-04 09:51 50.03891 8.54482 352 ft 16 kts 250°
2026-05-04 09:51 50.03833 8.54313 351 ft 19 kts 233°
2026-05-04 09:51 50.03774 8.54115 353 ft 21 kts 250°
2026-05-04 09:51 50.03719 8.53885 352 ft 24 kts 250°
2026-05-04 09:52 50.03658 8.53633 347 ft 26 kts 249°
2026-05-04 09:52 50.03594 8.53375 337 ft 12 kts 250°
2026-05-04 09:52 50.03563 8.53247 336 ft 13 kts 250°
2026-05-04 09:52 50.03529 8.53104 334 ft 15 kts 249°
2026-05-04 09:53 50.03489 8.52939 333 ft 18 kts 249°
2026-05-04 09:53 50.03441 8.52763 334 ft 14 kts 248°
2026-05-04 09:53 50.03395 8.52621 333 ft 16 kts 220°
2026-05-04 09:53 50.03268 8.52595 333 ft 31 kts 180°
2026-05-04 09:54 50.02779 8.52600 333 ft 105 kts 179°
2026-05-04 09:54 50.01855 8.52608 359 ft 156 kts 180°
2026-05-04 09:54 50.00739 8.52619 953 ft 162 kts 180°
2026-05-04 09:54 49.99615 8.52625 1734 ft 163 kts 180°
2026-05-04 09:55 49.98414 8.52629 2251 ft 183 kts 181°
2026-05-04 09:55 49.97084 8.52944 2593 ft 209 kts 156°
2026-05-04 09:55 49.95956 8.54527 3129 ft 231 kts 123°
2026-05-04 09:55 49.95160 8.56730 3991 ft 236 kts 121°
2026-05-04 09:56 49.94377 8.58991 4899 ft 241 kts 115°
2026-05-04 09:56 49.93990 8.61568 5678 ft 255 kts 96°
2026-05-04 09:56 49.93868 8.64432 6225 ft 276 kts 95°
2026-05-04 09:56 49.93571 8.67404 7058 ft 282 kts 110°
2026-05-04 09:57 49.92698 8.70130 7984 ft 283 kts 129°
2026-05-04 09:57 49.91313 8.72280 8867 ft 283 kts 147°
2026-05-04 09:57 49.89705 8.74055 9796 ft 286 kts 145°
2026-05-04 09:57 49.88267 8.76239 10599 ft 296 kts 131°
2026-05-04 09:58 49.87110 8.79036 10949 ft 321 kts 122°
2026-05-04 09:58 49.85995 8.82132 11517 ft 334 kts 121°
2026-05-04 09:58 49.84861 8.85295 12338 ft 337 kts 121°
2026-05-04 10:00 49.76534 9.08438 17328 ft 368 kts 117°
2026-05-04 10:00 49.75707 9.12223 17979 ft 376 kts 107°
2026-05-04 10:02 49.65281 9.35349 22033 ft 388 kts 135°
2026-05-04 10:04 49.49868 9.52378 25323 ft 400 kts 153°
2026-05-04 10:04 49.47467 9.54566 25765 ft 402 kts 153°
2026-05-04 10:04 49.45051 9.56767 26198 ft 405 kts 153°
2026-05-04 10:04 49.42622 9.58979 26624 ft 407 kts 153°
2026-05-04 10:05 49.40178 9.61197 27043 ft 409 kts 153°
2026-05-04 10:05 49.37719 9.63427 27452 ft 412 kts 153°
2026-05-04 10:05 49.35253 9.65690 27855 ft 415 kts 151°
2026-05-04 10:05 49.32948 9.68423 28249 ft 423 kts 141°
2026-05-04 10:06 49.30854 9.71612 28665 ft 426 kts 139°
2026-05-04 10:06 49.28761 9.74835 29077 ft 428 kts 139°
2026-05-04 10:06 49.26651 9.78063 29474 ft 430 kts 139°
2026-05-04 10:08 49.13698 9.97725 31349 ft 444 kts 139°
2026-05-04 10:08 49.11499 10.01059 31622 ft 447 kts 140°
2026-05-04 10:08 49.09296 10.04392 32005 ft 446 kts 140°
2026-05-04 10:08 49.07088 10.07716 32383 ft 445 kts 140°
2026-05-04 10:09 49.04872 10.11009 32779 ft 444 kts 141°
2026-05-04 10:09 49.02625 10.14248 33010 ft 444 kts 142°
2026-05-04 10:09 49.00388 10.17409 33034 ft 431 kts 142°
2026-05-04 10:09 48.98203 10.20463 33058 ft 423 kts 142°
2026-05-04 10:10 48.93877 10.26470 33066 ft 420 kts 142°
2026-05-04 10:10 48.89586 10.32479 33062 ft 419 kts 142°
2026-05-04 10:11 48.85313 10.38514 33063 ft 419 kts 142°
2026-05-04 10:11 48.81077 10.44621 33064 ft 421 kts 140°
2026-05-04 10:12 48.77042 10.51063 33043 ft 422 kts 137°
2026-05-04 10:12 48.73071 10.57606 33038 ft 422 kts 137°
2026-05-04 10:13 48.69055 10.64106 33045 ft 423 kts 138°
2026-05-04 10:13 48.65002 10.70543 33043 ft 423 kts 139°
2026-05-04 10:14 48.60939 10.76972 33027 ft 423 kts 139°
2026-05-04 10:16 48.44715 11.02743 33005 ft 424 kts 139°
2026-05-04 10:16 48.40605 11.09120 33008 ft 425 kts 139°
2026-05-04 10:17 48.36487 11.15500 33013 ft 425 kts 139°
2026-05-04 10:19 48.23215 11.39359 33005 ft 434 kts 123°
2026-05-04 10:19 48.21725 11.43235 33007 ft 434 kts 123°
2026-05-04 10:19 48.18669 11.51110 33010 ft 434 kts 124°
2026-05-04 10:20 48.15624 11.58931 33010 ft 434 kts 124°
2026-05-04 10:20 48.12577 11.66742 33011 ft 435 kts 123°
2026-05-04 10:21 48.09520 11.74563 33012 ft 436 kts 123°
2026-05-04 10:21 48.06462 11.82387 33012 ft 436 kts 123°
2026-05-04 10:22 48.01874 11.94068 33002 ft 437 kts 123°
2026-05-04 10:23 47.98790 12.01875 32997 ft 437 kts 123°
2026-05-04 10:25 47.83080 12.28421 33010 ft 428 kts 143°
2026-05-04 10:25 47.79264 12.33191 33005 ft 428 kts 143°
2026-05-04 10:26 47.74703 12.38874 32997 ft 427 kts 143°
2026-05-04 10:26 47.70146 12.44539 32998 ft 427 kts 143°
2026-05-04 10:27 47.65591 12.50197 33000 ft 427 kts 143°
2026-05-04 10:27 47.60827 12.55348 33000 ft 421 kts 155°
2026-05-04 10:28 47.55676 12.59481 33002 ft 421 kts 155°
2026-05-04 10:28 47.50534 12.63622 32998 ft 421 kts 154°
2026-05-04 10:29 47.45392 12.67766 33003 ft 421 kts 154°
2026-05-04 10:29 47.40250 12.71895 33008 ft 421 kts 154°
2026-05-04 10:30 47.35105 12.76009 33008 ft 421 kts 154°
2026-05-04 10:30 47.29959 12.80113 33020 ft 420 kts 154°
2026-05-04 10:31 47.24815 12.84215 33025 ft 421 kts 154°
2026-05-04 10:32 47.06817 12.98513 33040 ft 420 kts 154°
2026-05-04 10:33 47.01666 13.02573 33049 ft 420 kts 154°
2026-05-04 10:33 46.96512 13.06625 33064 ft 421 kts 154°
2026-05-04 10:34 46.91361 13.10674 33062 ft 420 kts 154°
2026-05-04 10:34 46.86205 13.14716 33074 ft 421 kts 154°
2026-05-04 10:35 46.81045 13.18757 33067 ft 421 kts 154°
2026-05-04 10:35 46.75874 13.22784 33072 ft 421 kts 154°
2026-05-04 10:36 46.70698 13.26813 33078 ft 422 kts 154°
2026-05-04 10:36 46.65523 13.30837 33087 ft 422 kts 154°
2026-05-04 10:37 46.60344 13.34858 33087 ft 422 kts 154°
2026-05-04 10:37 46.55161 13.38856 33087 ft 421 kts 155°
2026-05-04 10:39 46.36673 13.51829 33082 ft 423 kts 156°
2026-05-04 10:40 46.31382 13.55563 33098 ft 423 kts 156°
2026-05-04 10:40 46.26085 13.59281 33106 ft 423 kts 156°
2026-05-04 10:41 46.20783 13.62984 33111 ft 423 kts 156°
2026-05-04 10:41 46.15484 13.66687 33108 ft 423 kts 156°
2026-05-04 10:42 46.10182 13.70377 33101 ft 423 kts 156°
2026-05-04 10:42 46.04874 13.74068 33107 ft 424 kts 156°
2026-05-04 10:43 45.99560 13.77748 33013 ft 424 kts 157°
2026-05-04 10:44 45.81469 13.90230 29926 ft 402 kts 156°
2026-05-04 10:45 45.78959 13.91956 29462 ft 398 kts 156°
2026-05-04 10:45 45.76472 13.93667 29023 ft 394 kts 156°
2026-05-04 10:45 45.74015 13.95357 28585 ft 390 kts 156°
2026-05-04 10:45 45.71581 13.97027 28143 ft 386 kts 157°
2026-05-04 10:46 45.69171 13.98680 27711 ft 382 kts 156°
2026-05-04 10:46 45.66785 14.00318 27296 ft 379 kts 156°
2026-05-04 10:46 45.64411 14.01941 26848 ft 377 kts 156°
2026-05-04 10:46 45.62056 14.03544 26412 ft 374 kts 157°
2026-05-04 10:47 45.59712 14.05137 25958 ft 372 kts 157°
2026-05-04 10:47 45.57408 14.06703 25505 ft 371 kts 157°
2026-05-04 10:47 45.55054 14.08302 25034 ft 369 kts 157°
2026-05-04 10:47 45.52737 14.09878 24560 ft 369 kts 157°
2026-05-04 10:49 45.42379 14.29779 21131 ft 366 kts 116°
2026-05-04 10:49 45.41334 14.33073 20681 ft 365 kts 116°
2026-05-04 10:50 45.40292 14.36350 20222 ft 363 kts 116°
2026-05-04 10:51 45.33296 14.58283 17108 ft 323 kts 118°
2026-05-04 10:52 45.32361 14.61188 16719 ft 322 kts 117°
2026-05-04 10:52 45.31429 14.64079 16314 ft 322 kts 116°
2026-05-04 10:52 45.30500 14.66967 15925 ft 321 kts 116°
2026-05-04 10:54 45.24045 14.86949 13154 ft 316 kts 116°
2026-05-04 10:54 45.23131 14.89772 12751 ft 314 kts 117°
2026-05-04 10:56 45.14516 15.05726 9971 ft 296 kts 179°
2026-05-04 10:56 45.12509 15.05452 9756 ft 285 kts 188°
2026-05-04 10:56 45.10568 15.05058 9196 ft 277 kts 188°
2026-05-04 10:57 45.08725 15.04683 9004 ft 258 kts 189°
2026-05-04 10:57 45.07021 15.04317 8873 ft 238 kts 193°
2026-05-04 10:57 45.05537 15.03417 8765 ft 233 kts 215°
2026-05-04 10:57 45.04401 15.01802 8510 ft 236 kts 237°
2026-05-04 10:58 45.03771 14.99671 8193 ft 237 kts 253°
2026-05-04 10:58 45.03325 14.97425 7863 ft 238 kts 252°
2026-05-04 10:58 45.02871 14.95162 7447 ft 241 kts 253°
2026-05-04 10:58 45.02409 14.92862 6828 ft 244 kts 252°
2026-05-04 10:59 45.01941 14.90548 6213 ft 245 kts 252°
2026-05-04 10:59 45.01473 14.88262 5788 ft 238 kts 253°
2026-05-04 10:59 45.01026 14.86081 5455 ft 225 kts 253°
2026-05-04 10:59 45.00602 14.84015 5158 ft 213 kts 254°
2026-05-04 11:00 45.00238 14.81989 4867 ft 213 kts 264°
2026-05-04 11:01 45.06351 14.72967 3525 ft 168 kts 317°
2026-05-04 11:02 45.07279 14.72007 3347 ft 162 kts 319°
2026-05-04 11:02 45.08169 14.71089 3174 ft 156 kts 320°
2026-05-04 11:05 45.19468 14.59325 597 ft 134 kts 323°
2026-05-04 11:06 45.20229 14.58566 423 ft 133 kts 323°
2026-05-04 11:06 45.20963 14.57813 271 ft 125 kts 323°
2026-05-04 11:06 45.21556 14.57187 287 ft 83 kts 323°
2026-05-04 11:06 45.21895 14.56835 287 ft 34 kts 323°
2026-05-04 11:08 45.22036 14.56811 291 ft 0 kts 105°
2026-05-04 11:10 45.21915 14.57119 288 ft 2 kts 100°
2026-05-04 11:12 45.21912 14.57137 288 ft 0 kts 103°
2026-05-04 11:13 45.00233 14.81080 4671 ft 206 kts 273°